STARLINK-31814, 59802

Orbit data source: Space-Track

STARLINK-31814, 59802 is a payload satellite owned by SpaceX/Seattle (US) in LEO that was launched on Sat, 18 May 2024 UTC via an FALCON 9 launch vehicle from the Air Force Eastern Test Range (AFETR). Payload-class satellites include a variety of spacecraft equipped with specific instruments for various scientific and technological missions. These include communications satellites like Starlink; space stations such as the ISS; scientific satellites like the Hubble; Earth observation satellites from companies like Planet Labs, Umbra, and HawkEye 360; GPS; miniature CubeSats for education and research; and military/defense satellites.

Loading next visibility...
Identifier
59802, 2024-093W
Orbit
LEO
Country
Flag of USUS
Related business
Manufacturer
SpaceX/Seattle
Mission
Operational Commercial Communications
Bus & Motor
STARLINK V2M, Unknown motor
Mass
730 kg wet, ~700 kg dry
Launch date (UTC)
2024-05-18 (2 years ago)
Launch vehicle
FALCON 9
Launch site
Air Force Eastern Test Range (AFETR)
Object type
Payload
Rocket body
Debris
Shape & HBR
Box + 2 Pan, 17.7 m
Radar Cross Section
33.884 m², Large (>1 m²)

Expand to show TLE details & history
Last TLE update: 1 day ago

TLE from 1 day ago
0 STARLINK-31814
1 59802U 24093W   26125.40058848 -.00003558  00000-0 -11976-3 0  9995
2 59802  43.0013 249.0329 0000579 235.4260 124.6537 15.27603390111365
Epoch: 2026-05-05T09:36Z
TLE epoch observation values (Epoch: 2026-05-05T09:36:50.844Z)
Latitude
-0.00003°
Longitude
-118.45495°
Altitude
482.98 km
Speed
7.626 km/s
True Right ascension
16h 36m 07s
True Declination
0° 00' 00"
Sunlit
Object was in full shadow at epoch
Visualization orbit readout
Latitude
Unknown
Longitude
Unknown
Altitude
Unknown
Speed
Unknown
Apparent Right ascension
Unknown
Apparent Declination
Unknown
Sunlit
N/A
Visualization observer readout
Local Sidereal Time
21:17:19
Azimuth
Unknown
Elevation
Unknown
Doppler factor
Unknown
Orbital elements
Apogee altitude
485.321 km
Perigee altitude
484.527 km
Semi-major axis
6,863.061 km
Eccentricity
0.00006
Inclination
43.0013°
RAAN
249.0329°
Arg. of periapsis
235.426°
True anomaly
124.65916°
Mean anomaly
124.6537°
Eccentric anomaly
124.65643°
Mean motion
3.81739 °/min
Orbital period
94.31 mins
BSTAR
-0.00011976
Loading maneuver chart data...
Computing Atmospheric mass density...
Loading historical data...
Loading historical data...
Loading historical data...
Loading historical data...
Loading historical data...
Loading historical data...
Loading historical data...

Documentation

Showing up to 5 results
|